Temp
5 5 5 5 5 5 5 5 5 5 5 4 4 4 5 4 4 5 5 5 5 5 5 5 5 5 5 4 4 4 4 4 4 4 4 4 5 5 5 5 5 5 5 5 5 5 5 6 6 6 6 6 6 6 6 6 6 6 6 6 7 7
5 5 5 5 5 5 5 5 5 5 5 4 4 4 4 4 4 4 5 4 4 4 4 4 4 4 4 4 4 4 4 4 4 4 4 4 4 5 5 5 5 5 5 5 5 5 5 5 6 6 6 6 6 6 6 6 6 6 6 6 6 7
5 5 5 5 5 5 5 5 5 5 4 4 4 4 4 4 4 4 4 4 4 4 4 4 4 4 4 4 4 4 4 4 4 4 4 4 4 4 5 5 5 5 5 5 5 5 5 5 5 5 5 5 5 5 5 5 6 6 6 6 6 6
5 5 5 5 5 5 4 4 5 5 4 4 4 4 4 4 4 4 4 4 4 4 4 4 4 4 4 4 4 4 4 3 4 4 4 4 4 4 4 5 5 5 5 5 5 5 5 5 5 5 5 5 5 5 5 5 5 5 5 5 6 6
5 5 5 5 5 5 5 4 5 4 4 4 4 3 4 4 4 4 4 4 4 4 4 4 3 3 3 4 4 4 4 3 3 3 4 4 4 4 4 4 4 4 4 5 5 5 5 5 4 4 4 4 4 4 4 5 5 4 4 5 5 6
5 5 5 5 5 5 5 4 4 4 4 4 4 3 4 4 4 4 4 4 4 4 3 3 3 3 3 3 3 3 3 3 3 3 3 4 4 4 4 4 4 4 4 4 5 5 4 4 4 4 4 4 4 4 4 4 4 4 4 5 5 5
5 5 5 5 5 4 4 4 4 4 4 4 4 4 4 3 4 4 4 4 3 3 3 3 3 3 3 3 3 3 3 3 3 3 3 4 4 4 4 4 4 4 4 4 4 4 4 4 4 4 4 4 4 4 4 4 4 4 4 4 5 5
5 5 4 4 4 4 4 4 4 4 4 4 4 4 4 4 4 3 3 4 3 3 3 3 3 3 3 3 3 3 3 3 3 3 3 3 4 4 4 4 4 4 4 4 4 4 4 4 4 4 4 4 4 4 4 4 4 4 4 4 4 4
5 4 4 4 4 4 4 4 4 4 4 4 4 4 4 3 3 3 3 3 3 3 3 4 4 3 4 4 3 3 3 3 3 3 3 3 3 3 3 3 4 4 4 4 4 4 4 4 4 4 4 4 4 3 3 3 3 3 4 4 4 4
5 4 4 4 4 4 4 4 4 4 4 4 4 4 3 3 4 4 3 3 3 3 3 4 4 4 4 4 3 3 3 3 3 3 3 3 3 3 3 3 4 4 4 4 4 4 4 4 4 4 4 4 3 3 3 3 3 3 3 3 4 4
4 4 4 4 4 4 4 4 4 4 4 4 4 4 4 4 4 3 3 3 3 4 3 3 3 4 4 3 3 3 3 3 3 3 3 3 3 3 3 4 4 4 4 4 4 4 4 4 4 4 3 3 3 3 3 3 3 3 3 3 3 3
4 4 4 4 4 4 4 4 4 4 4 4 4 4 4 4 4 3 3 4 4 4 3 3 3 3 3 3 3 3 3 3 3 3 3 3 3 3 3 3 3 4 4 4 4 3 3 4 4 3 3 3 3 3 3 3 3 3 3 3 3 3
4 4 4 4 4 4 4 4 4 4 4 4 4 4 4 4 4 3 3 3 3 3 3 3 3 3 3 3 3 3 3 3 3 3 3 3 3 3 3 3 3 3 4 4 4 3 3 3 3 3 3 3 3 3 3 3 3 3 3 3 3 3
5 4 4 4 4 5 4 4 4 4 4 4 4 4 4 4 4 3 3 3 3 3 3 3 3 3 3 3 3 3 3 3 3 3 3 3 3 3 3 3 3 3 3 3 3 3 3 3 3 3 3 3 3 3 3 3 3 3 3 3 3 3
5 4 4 4 5 5 4 4 4 4 4 5 5 5 5 4 4 4 3 3 3 3 3 3 3 3 3 3 3 3 3 3 3 3 3 3 3 3 3 3 3 3 3 3 3 3 3 3 3 3 3 3 3 3 3 3 3 3 3 3 3 3
4 4 4 5 5 5 5 5 5 5 5 5 5 5 5 4 4 4 4 4 4 3 3 3 3 3 3 3 3 3 3 3 3 3 3 3 3 3 3 3 3 3 3 3 3 3 3 3 3 3 3 3 3 3 3 3 3 3 3 3 3 3
4 4 5 5 5 5 5 5 5 5 5 5 5 5 5 5 5 4 4 4 4 4 4 4 4 4 3 3 3 3 3 3 3 3 3 3 3 3 3 3 3 3 3 3 3 3 3 3 3 3 3 3 3 3 3 3 3 2 3 3 3 3
4 5 5 5 5 5 5 5 5 5 5 5 5 4 4 4 4 4 4 4 4 4 4 4 4 3 3 3 3 3 3 3 3 3 3 3 3 3 3 3 3 3 3 3 3 3 3 3 3 3 3 3 3 3 3 3 3 3 3 3 3 3
4 5 5 5 5 5 5 5 5 5 5 4 4 4 4 4 4 4 4 4 4 4 4 4 3 3 3 3 3 3 3 3 3 3 3 3 3 3 3 3 3 3 3 3 3 3 3 3 3 3 2 2 2 2 2 2 2 2 3 2 3 3
4 5 5 5 5 5 5 5 5 5 5 4 4 4 4 4 4 4 4 4 4 4 4 4 3 3 3 3 3 3 3 3 3 3 3 3 3 3 3 3 3 3 3 3 3 3 3 3 3 3 2 2 2 2 2 2 2 2 2 2 3 3
4 5 5 5 5 5 5 5 5 5 4 4 4 4 4 4 4 4 4 4 4 4 4 4 4 3 3 3 3 3 3 3 3 3 3 3 2 2 2 3 3 3 3 3 3 3 3 3 3 3 2 2 2 2 2 2 2 2 2 2 2 2
4 5 5 5 5 5 5 5 5 4 4 4 4 4 4 4 4 4 4 4 4 4 4 4 4 3 3 3 3 3 3 3 3 3 2 2 2 2 2 2 2 3 3 3 3 3 3 3 3 2 2 2 2 2 2 2 2 2 2 2 2 2
4 5 5 5 5 5 5 5 4 4 4 4 4 4 4 4 4 4 4 4 4 4 4 4 3 3 3 3 3 2 2 2 3 2 2 2 2 2 2 2 3 3 3 3 3 3 3 3 3 2 2 2 2 2 2 2 2 2 2 2 2 2
4 5 5 5 5 5 5 4 4 4 4 4 4 4 4 4 4 4 4 4 4 4 4 4 3 3 2 2 2 2 2 2 2 2 2 2 2 2 2 2 3 3 3 3 3 3 3 3 3 3 2 2 2 2 2 2 2 2 2 2 2 2
4 5 5 5 5 4 4 4 4 4 4 4 4 4 4 4 4 4 4 4 4 4 4 4 4 3 3 2 2 2 2 2 2 2 2 2 2 2 2 2 2 3 3 3 3 3 3 3 3 3 2 2 2 2 2 2 2 2 2 2 2 2
4 5 5 5 4 4 4 4 4 4 4 4 3 3 3 3 3 3 3 3 3 4 4 4 3 3 3 3 2 2 2 2 2 2 2 2 2 2 2 2 2 2 3 3 3 3 3 3 3 2 2 2 2 2 2 2 2 2 2 2 2 2
4 4 5 4 4 4 4 4 4 4 3 3 3 3 3 3 3 3 3 3 3 3 3 3 3 3 3 3 2 2 2 2 2 2 2 2 2 2 2 2 2 2 2 2 2 2 2 2 2 2 2 2 2 2 2 2 2 2 2 2 2 2
4 4 4 4 4 4 4 4 4 3 3 3 3 3 3 3 3 3 3 3 3 3 3 3 3 3 3 3 2 2 2 2 2 2 2 2 1 1 1 1 2 2 2 2 2 2 2 2 2 2 2 2 2 2 2 2 2 2 2 2 2 2
4 4 4 4 4 4 4 4 3 3 3 3 3 3 3 3 3 3 3 3 3 3 3 3 3 3 3 3 2 2 2 1 1 1 1 1 1 1 1 1 1 2 2 2 2 2 2 2 2 2 1 2 2 2 2 2 1 1 2 2 2 1
4 4 4 4 4 4 3 3 3 3 3 3 3 3 3 3 2 2 2 2 2 2 3 3 3 3 3 3 2 2 1 1 1 1 1 1 1 1 1 1 1 1 1 1 1 1 2 2 2 1 1 1 2 1 1 1 1 1 1 1 1 2
4 4 4 4 4 4 3 3 3 3 3 3 3 3 3 2 2 2 2 2 2 2 2 3 3 3 3 3 2 2 1 1 1 1 1 1 1 1 1 1 1 1 1 1 1 1 1 1 1 1 1 2 1 1 1 1 1 1 1 1 1 2
4 4 4 4 4 4 3 3 3 3 3 3 3 3 3 3 2 2 2 2 2 2 2 3 3 3 3 3 2 2 2 1 1 1 1 1 1 1 1 1 1 1 1 1 1 1 1 1 1 1 1 2 1 1 1 1 1 1 1 1 2 2
3 3 3 4 4 4 3 3 3 3 3 3 3 3 3 2 2 2 2 2 1 1 2 2 3 3 3 3 2 2 2 1 1 1 1 1 1 1 1 1 1 0 0 0 0 1 1 1 1 1 1 1 1 1 1 1 1 1 2 2 2 1
2 2 3 3 3 3 3 3 3 3 3 3 2 2 2 2 2 2 2 1 1 1 1 2 3 3 2 2 2 2 2 1 1 1 1 1 1 1 1 1 1 1 1 1 0 0 1 1 1 1 1 1 2 2 2 2 2 2 2 2 1 1
3 2 2 3 3 3 3 3 3 3 3 2 2 2 2 1 1 2 1 1 1 1 1 2 2 2 2 2 2 2 1 1 1 1 1 1 1 1 1 1 1 1 1 1 1 0 1 1 1 1 1 1 1 1 1 1 1 1 1 1 1 1
3 2 3 3 3 3 3 3 2 2 2 2 2 1 1 1 1 1 1 1 1 1 1 2 2 2 2 2 2 2 1 1 1 1 1 1 1 1 1 1 1 1 1 1 1 1 1 1 1 1 1 1 1 1 1 1 1 1 1 1 1 0
3 2 3 2 2 3 3 2 2 2 2 2 1 1 0 0 1 1 1 1 1 1 1 1 2 2 2 2 2 2 1 1 1 1 1 1 1 1 1 1 1 1 1 1 1 1 1 0 0 0 0 0 0 0 0 0 0 0 0 0 0 0
Height
3147 3147 3147 3148 3148 3148 3149 3150 3153 3154 3156 3157 3158 3160 3161 3163 3165 3166 3166 3167 3167 3167 3167 3167 3167 3167 3167 3167 3168 3168 3168 3168 3168 3169 3169 3170 3170 3171 3171 3172 3173 3174 3174 3175 3176 3178 3180 3181 3183 3184 3185 3186 3188 3188 3189 3190 3191 3192 3193 3194 3194 3195
3147 3147 3147 3148 3149 3148 3149 3150 3152 3154 3155 3157 3157 3159 3161 3163 3164 3165 3166 3166 3166 3166 3166 3166 3167 3166 3167 3167 3167 3167 3168 3168 3168 3169 3169 3169 3170 3170 3170 3171 3171 3172 3173 3174 3175 3176 3178 3180 3181 3183 3184 3185 3186 3187 3187 3188 3189 3190 3191 3192 3193 3193
3146 3147 3148 3148 3148 3148 3149 3151 3153 3155 3156 3156 3156 3158 3160 3162 3164 3164 3165 3165 3165 3165 3165 3166 3166 3166 3166 3167 3166 3167 3167 3167 3168 3168 3168 3168 3169 3169 3169 3170 3170 3171 3172 3172 3173 3175 3176 3178 3180 3181 3182 3183 3184 3185 3186 3187 3188 3188 3189 3190 3191 3192
3145 3147 3150 3149 3148 3149 3150 3152 3154 3155 3155 3155 3156 3158 3160 3162 3163 3164 3164 3164 3164 3165 3165 3165 3165 3165 3165 3165 3165 3166 3166 3167 3167 3167 3167 3167 3167 3168 3168 3168 3169 3170 3171 3171 3172 3173 3175 3177 3178 3179 3180 3181 3182 3183 3184 3185 3186 3187 3187 3188 3189 3190
3146 3148 3151 3151 3150 3151 3151 3152 3154 3154 3153 3153 3155 3158 3161 3162 3163 3163 3163 3163 3163 3164 3164 3164 3164 3164 3164 3164 3165 3165 3165 3166 3167 3167 3166 3167 3167 3167 3167 3167 3168 3169 3170 3170 3171 3172 3173 3175 3176 3177 3178 3179 3180 3181 3183 3184 3185 3185 3185 3186 3187 3188
3149 3150 3151 3152 3152 3152 3153 3153 3153 3153 3153 3154 3156 3158 3160 3161 3162 3162 3162 3162 3162 3162 3162 3162 3162 3162 3163 3163 3164 3165 3165 3165 3165 3166 3166 3166 3166 3167 3167 3167 3167 3168 3169 3170 3170 3171 3172 3173 3174 3175 3177 3178 3179 3180 3181 3182 3183 3184 3184 3185 3185 3186
3150 3151 3152 3152 3152 3154 3155 3155 3155 3155 3155 3157 3159 3159 3159 3160 3160 3161 3161 3161 3161 3161 3161 3160 3160 3160 3161 3162 3163 3164 3164 3164 3164 3164 3165 3165 3166 3166 3166 3167 3167 3167 3168 3169 3170 3171 3171 3172 3173 3174 3175 3176 3177 3178 3179 3180 3181 3182 3183 3183 3184 3184
3150 3152 3153 3152 3152 3153 3153 3155 3157 3157 3158 3159 3160 3160 3157 3157 3159 3160 3160 3160 3160 3159 3159 3158 3157 3158 3159 3161 3162 3163 3163 3163 3163 3163 3164 3164 3165 3165 3165 3166 3167 3167 3168 3168 3169 3170 3171 3171 3173 3173 3174 3175 3176 3177 3178 3179 3180 3181 3181 3182 3182 3182
3150 3151 3152 3152 3153 3153 3151 3152 3156 3158 3158 3157 3157 3158 3155 3156 3158 3159 3159 3158 3158 3157 3156 3156 3155 3157 3159 3160 3161 3161 3161 3161 3162 3162 3162 3163 3163 3163 3164 3165 3166 3166 3167 3167 3168 3168 3169 3170 3171 3173 3173 3174 3175 3176 3177 3177 3178 3179 3180 3181 3181 3181
3150 3151 3152 3151 3152 3155 3153 3152 3155 3157 3157 3155 3154 3155 3155 3156 3157 3157 3157 3156 3155 3155 3156 3156 3155 3157 3158 3159 3159 3158 3159 3160 3159 3159 3160 3160 3160 3161 3162 3163 3164 3165 3166 3166 3167 3168 3168 3169 3170 3171 3172 3173 3174 3175 3176 3177 3177 3178 3179 3179 3179 3180
3150 3151 3152 3151 3150 3152 3154 3154 3155 3155 3154 3153 3153 3154 3155 3156 3156 3155 3155 3154 3154 3154 3155 3157 3157 3158 3158 3157 3157 3158 3159 3158 3157 3157 3158 3157 3158 3159 3159 3161 3163 3164 3165 3166 3166 3167 3168 3168 3169 3170 3171 3173 3173 3174 3175 3175 3176 3177 3177 3178 3178 3179
3149 3150 3151 3151 3149 3149 3152 3153 3153 3152 3152 3153 3154 3154 3155 3156 3155 3153 3154 3154 3153 3153 3154 3157 3159 3159 3157 3156 3157 3158 3157 3157 3157 3157 3157 3158 3159 3160 3159 3160 3162 3163 3164 3165 3166 3166 3167 3168 3169 3170 3171 3172 3173 3174 3174 3174 3175 3176 3176 3177 3177 3177
3149 3151 3151 3151 3151 3150 3150 3151 3152 3152 3153 3153 3154 3154 3154 3155 3154 3153 3154 3154 3152 3152 3154 3158 3160 3159 3156 3155 3156 3156 3155 3155 3155 3155 3156 3158 3159 3159 3158 3159 3161 3162 3163 3164 3165 3165 3166 3167 3168 3169 3170 3171 3172 3173 3173 3174 3175 3175 3176 3176 3176 3176
3149 3150 3151 3151 3152 3152 3152 3152 3153 3153 3153 3153 3154 3154 3154 3155 3153 3152 3153 3153 3153 3153 3156 3159 3159 3157 3155 3155 3155 3155 3154 3155 3154 3153 3153 3155 3157 3158 3158 3157 3159 3161 3162 3164 3165 3165 3165 3166 3167 3168 3169 3170 3171 3172 3172 3173 3174 3174 3174 3174 3174 3175
3148 3147 3149 3151 3152 3152 3153 3153 3154 3153 3153 3153 3154 3154 3154 3154 3153 3152 3152 3153 3153 3152 3155 3158 3156 3154 3154 3154 3154 3154 3154 3154 3153 3152 3152 3153 3154 3155 3155 3156 3157 3159 3161 3163 3164 3164 3165 3166 3167 3167 3168 3168 3169 3170 3171 3172 3172 3172 3173 3173 3173 3173
3147 3146 3147 3150 3151 3152 3153 3153 3154 3153 3154 3154 3154 3154 3154 3154 3154 3153 3151 3152 3153 3152 3154 3155 3154 3153 3154 3153 3153 3154 3154 3153 3152 3152 3152 3153 3153 3153 3153 3155 3156 3158 3160 3162 3163 3163 3164 3165 3166 3167 3167 3167 3168 3168 3169 3170 3170 3170 3171 3171 3170 3170
3145 3146 3147 3150 3151 3152 3153 3153 3154 3154 3154 3154 3154 3154 3154 3154 3154 3153 3152 3151 3151 3152 3154 3154 3153 3153 3153 3153 3153 3153 3153 3152 3152 3152 3152 3153 3153 3152 3153 3154 3156 3157 3159 3161 3162 3162 3163 3164 3165 3166 3166 3166 3167 3167 3167 3168 3168 3168 3168 3168 3169 3171
3143 3146 3148 3150 3151 3152 3153 3153 3154 3154 3154 3154 3154 3154 3154 3154 3153 3153 3152 3151 3150 3151 3152 3153 3152 3152 3152 3153 3153 3153 3152 3152 3151 3151 3152 3152 3153 3153 3153 3154 3155 3157 3158 3160 3160 3161 3161 3163 3164 3164 3165 3165 3166 3166 3166 3167 3167 3167 3166 3168 3171 3172
3141 3146 3148 3149 3151 3152 3152 3153 3153 3154 3154 3154 3155 3154 3154 3154 3153 3152 3151 3151 3150 3150 3152 3152 3151 3151 3151 3152 3153 3153 3152 3152 3151 3151 3151 3151 3152 3152 3153 3154 3155 3156 3158 3159 3159 3159 3160 3162 3162 3163 3163 3164 3165 3165 3165 3166 3166 3166 3166 3168 3170 3170
3142 3145 3148 3149 3150 3152 3152 3153 3153 3154 3154 3154 3154 3154 3154 3154 3153 3152 3151 3150 3150 3150 3151 3151 3151 3151 3151 3151 3152 3152 3151 3151 3150 3150 3150 3150 3151 3152 3152 3153 3154 3156 3158 3158 3158 3159 3159 3161 3161 3162 3162 3163 3163 3164 3164 3164 3165 3165 3165 3167 3169 3169
3143 3145 3148 3149 3150 3151 3152 3152 3153 3153 3154 3154 3154 3154 3154 3153 3153 3152 3151 3150 3150 3149 3149 3150 3150 3150 3150 3150 3151 3151 3151 3150 3150 3149 3149 3150 3151 3151 3151 3152 3153 3155 3157 3158 3158 3158 3159 3160 3160 3160 3161 3161 3162 3163 3163 3163 3164 3164 3164 3165 3167 3168
3143 3145 3147 3149 3150 3151 3151 3152 3153 3153 3154 3154 3154 3153 3153 3153 3153 3152 3151 3150 3150 3149 3149 3149 3149 3149 3149 3149 3149 3150 3150 3150 3149 3149 3149 3149 3150 3151 3151 3152 3153 3154 3156 3157 3157 3158 3158 3159 3159 3159 3160 3160 3160 3161 3162 3162 3162 3163 3163 3164 3165 3166
3143 3145 3146 3148 3149 3150 3151 3152 3152 3153 3153 3153 3153 3153 3153 3153 3152 3152 3152 3151 3150 3149 3149 3148 3148 3148 3148 3148 3148 3149 3149 3149 3149 3149 3149 3149 3150 3150 3151 3151 3152 3154 3155 3156 3157 3157 3157 3157 3158 3158 3159 3159 3159 3160 3160 3160 3161 3162 3162 3163 3164 3165
3142 3144 3146 3148 3149 3150 3151 3151 3152 3152 3152 3152 3152 3152 3152 3152 3152 3152 3151 3151 3150 3150 3149 3148 3148 3147 3147 3147 3148 3148 3148 3149 3149 3148 3149 3149 3149 3149 3150 3151 3151 3153 3154 3156 3156 3156 3156 3156 3156 3157 3158 3158 3158 3158 3159 3159 3160 3161 3162 3162 3163 3164
3142 3144 3145 3147 3148 3149 3150 3150 3151 3151 3151 3151 3151 3151 3151 3151 3151 3151 3151 3151 3150 3149 3149 3148 3148 3147 3147 3147 3147 3147 3147 3148 3148 3148 3148 3148 3149 3149 3150 3150 3150 3152 3153 3154 3155 3155 3155 3155 3156 3157 3157 3157 3157 3158 3158 3159 3159 3160 3161 3162 3162 3163
3141 3143 3144 3146 3147 3148 3148 3149 3149 3150 3150 3150 3150 3150 3151 3151 3151 3151 3150 3150 3149 3149 3148 3148 3147 3147 3147 3146 3146 3146 3146 3146 3147 3147 3147 3148 3148 3148 3149 3149 3149 3150 3151 3152 3153 3154 3154 3154 3155 3156 3156 3156 3156 3157 3157 3158 3159 3159 3160 3161 3162 3162
3140 3142 3143 3145 3146 3146 3147 3147 3148 3148 3149 3149 3149 3149 3150 3150 3150 3150 3149 3149 3149 3148 3148 3147 3146 3146 3146 3146 3145 3145 3145 3145 3145 3146 3146 3146 3146 3147 3147 3147 3147 3148 3149 3150 3151 3152 3152 3152 3153 3154 3155 3155 3156 3156 3156 3157 3158 3158 3159 3160 3161 3161
3139 3140 3142 3143 3144 3145 3145 3146 3146 3147 3147 3148 3148 3149 3149 3149 3149 3149 3148 3148 3148 3147 3147 3146 3145 3145 3145 3144 3144 3144 3144 3144 3144 3144 3145 3145 3145 3145 3145 3145 3145 3146 3147 3149 3149 3150 3151 3151 3152 3153 3153 3154 3155 3155 3156 3156 3157 3157 3158 3159 3160 3160
3138 3139 3140 3142 3143 3143 3144 3144 3145 3146 3147 3147 3147 3147 3148 3148 3148 3148 3148 3148 3147 3147 3146 3145 3144 3144 3144 3143 3143 3143 3143 3143 3143 3143 3144 3144 3144 3144 3144 3144 3144 3145 3146 3147 3148 3149 3150 3150 3151 3152 3153 3153 3154 3155 3155 3156 3156 3157 3158 3158 3159 3159
3137 3138 3139 3140 3141 3142 3143 3143 3144 3145 3145 3145 3146 3146 3147 3147 3147 3147 3147 3147 3146 3146 3146 3144 3144 3143 3143 3142 3142 3142 3142 3142 3142 3142 3142 3143 3143 3143 3143 3143 3143 3144 3144 3145 3146 3147 3148 3149 3150 3151 3152 3152 3153 3154 3154 3155 3156 3157 3158 3158 3158 3159
3135 3136 3137 3139 3140 3141 3142 3143 3144 3144 3144 3145 3145 3145 3146 3146 3146 3146 3146 3146 3145 3145 3145 3144 3143 3142 3142 3141 3141 3141 3141 3141 3141 3141 3141 3141 3142 3142 3142 3142 3143 3143 3143 3144 3145 3146 3147 3148 3149 3150 3151 3152 3152 3153 3154 3155 3155 3156 3157 3157 3158 3158
3133 3135 3137 3139 3140 3142 3142 3143 3144 3144 3144 3144 3144 3145 3145 3145 3145 3144 3144 3144 3144 3144 3143 3143 3142 3141 3141 3140 3140 3140 3140 3140 3140 3140 3140 3141 3141 3141 3141 3141 3142 3142 3143 3143 3144 3145 3145 3147 3148 3149 3150 3151 3151 3152 3153 3153 3154 3155 3156 3157 3157 3158
3131 3134 3137 3139 3140 3141 3142 3143 3143 3143 3143 3144 3144 3144 3144 3144 3143 3143 3143 3142 3142 3142 3142 3141 3140 3140 3140 3140 3139 3139 3139 3140 3140 3140 3140 3140 3140 3140 3141 3141 3141 3142 3142 3143 3143 3144 3144 3146 3147 3148 3149 3150 3150 3151 3152 3153 3154 3155 3155 3156 3156 3157
3130 3131 3133 3137 3139 3139 3140 3141 3141 3142 3142 3143 3143 3143 3143 3143 3142 3142 3141 3141 3140 3140 3140 3140 3139 3139 3139 3138 3138 3138 3139 3139 3139 3140 3140 3140 3140 3140 3140 3141 3141 3141 3142 3142 3143 3143 3144 3145 3146 3147 3148 3149 3150 3150 3151 3152 3153 3154 3154 3155 3155 3156
3134 3132 3130 3133 3137 3138 3139 3140 3140 3141 3141 3141 3141 3141 3141 3141 3141 3141 3140 3139 3139 3139 3139 3139 3138 3138 3138 3138 3138 3138 3138 3138 3139 3139 3140 3140 3140 3140 3140 3140 3140 3140 3141 3142 3142 3143 3144 3145 3146 3147 3148 3148 3149 3150 3151 3152 3152 3153 3154 3154 3155 3155
3138 3136 3133 3133 3137 3139 3139 3140 3140 3140 3140 3140 3139 3139 3139 3139 3139 3139 3139 3138 3138 3138 3138 3138 3137 3137 3137 3137 3137 3137 3137 3138 3139 3139 3139 3139 3140 3140 3140 3140 3140 3140 3141 3141 3142 3143 3144 3144 3145 3146 3147 3148 3149 3150 3150 3151 3151 3152 3152 3153 3154 3154
3136 3136 3136 3136 3137 3139 3139 3139 3138 3138 3137 3137 3137 3137 3137 3137 3137 3137 3137 3136 3137 3137 3137 3137 3137 3137 3136 3137 3137 3137 3137 3138 3138 3139 3139 3139 3139 3140 3140 3140 3140 3140 3141 3141 3142 3143 3144 3144 3145 3146 3147 3148 3149 3149 3150 3150 3151 3151 3152 3153 3153 3154
Wind_Speed
10 9 11 14 17 18 19 19 19 18 16 14 13 12 10 9 8 7 6 5 4 3 3 2 2 2 3 3 4 4 4 4 4 4 3 4 4 6 7 7 9 12 16 18 20 21 22 22 22 22 22 22 22 22 22 20 19 18 19 20 20 18
11 11 13 14 16 18 18 18 18 17 16 15 14 12 10 10 8 7 6 5 4 3 3 3 2 3 3 3 4 5 4 4 3 3 3 3 3 4 7 9 9 10 14 17 19 20 21 22 22 22 21 21 21 22 22 22 20 19 19 20 21 20
14 14 13 11 12 16 17 17 17 16 17 17 15 12 11 10 8 7 6 5 5 4 4 3 3 4 4 4 5 6 5 5 4 3 3 3 2 3 5 9 11 11 12 15 17 19 20 21 21 21 21 21 21 21 21 21 20 20 20 21 21 20
14 12 11 10 10 12 14 14 15 16 16 16 15 13 11 9 8 6 6 5 5 5 5 5 4 4 4 5 6 6 6 6 5 4 4 3 3 3 4 7 11 12 12 14 15 17 19 19 19 21 21 20 20 19 20 20 19 19 19 20 20 20
13 9 8 10 12 11 12 12 13 13 13 13 14 12 10 8 7 6 6 5 5 6 6 6 6 6 6 6 6 7 7 6 5 5 5 4 4 3 3 3 8 11 12 13 14 15 15 16 18 20 19 19 18 18 19 19 18 18 18 19 20 20
12 9 9 10 13 13 12 12 12 12 10 11 13 10 8 7 6 5 5 5 6 7 8 8 8 8 7 6 6 7 7 7 6 6 5 5 5 4 3 2 4 7 10 12 13 14 14 14 16 18 19 18 19 19 18 18 18 18 18 19 20 19
11 11 10 10 11 11 12 13 13 12 10 9 9 9 8 6 5 5 5 6 7 8 9 10 10 9 8 6 7 7 7 8 8 7 6 6 5 4 4 3 3 4 6 9 11 12 13 13 13 15 17 18 18 18 18 19 19 18 18 19 20 20
10 11 11 10 9 8 11 14 13 11 10 8 9 9 7 4 5 5 6 8 9 10 11 13 13 10 8 7 8 8 8 8 9 8 6 5 4 4 4 3 3 3 4 5 8 10 11 11 11 13 14 16 17 18 18 19 19 19 19 19 19 20
10 11 10 10 10 8 8 9 10 7 8 9 8 8 5 3 6 7 8 10 11 13 14 15 13 9 7 8 10 10 9 9 10 8 7 6 5 5 4 2 2 3 3 4 4 5 6 7 8 10 11 13 14 15 16 18 18 17 18 18 17 18
11 10 9 10 10 10 5 3 5 6 8 7 4 3 3 4 7 8 11 13 13 14 15 15 13 10 7 8 11 12 10 10 11 11 10 9 9 8 7 5 3 2 3 3 2 1 1 2 4 7 9 11 12 13 13 15 16 16 16 17 17 17
11 10 9 7 6 7 7 5 5 5 4 2 2 3 5 6 8 11 13 13 14 14 14 13 11 10 8 9 12 12 10 11 13 14 12 11 10 9 8 6 4 3 2 2 1 1 2 2 3 6 7 9 10 10 10 12 14 15 15 15 16 17
11 11 9 6 3 2 4 3 1 1 2 4 4 5 6 6 9 13 12 13 14 13 13 11 8 8 8 10 11 9 10 11 13 13 11 9 8 6 6 7 5 3 2 1 0 1 1 2 4 5 5 6 7 8 8 9 11 12 13 13 14 15
12 12 10 6 4 1 1 2 3 3 3 4 5 6 6 6 10 12 11 13 16 14 12 10 7 8 10 11 11 10 11 11 12 13 10 8 8 7 7 7 5 3 3 2 1 1 2 3 4 5 5 5 5 6 6 7 8 9 10 11 12 14
12 12 10 7 5 4 2 1 2 3 3 4 5 6 5 5 9 11 11 13 16 16 12 8 7 9 10 11 12 12 11 11 12 11 8 7 6 6 6 6 4 4 3 2 2 2 2 3 4 4 5 5 6 6 6 6 7 7 8 11 12 13
10 9 10 8 6 5 3 2 1 2 3 4 5 6 6 6 8 11 13 12 13 15 11 6 7 10 11 11 11 12 12 11 11 9 7 10 7 4 3 3 4 4 3 3 3 3 3 3 3 4 4 5 6 7 6 6 7 7 8 9 11 14
10 8 9 9 7 6 4 3 1 1 3 4 5 6 7 7 7 10 14 13 12 14 12 9 10 11 10 10 10 11 12 10 10 9 8 10 9 5 3 3 3 3 3 4 4 4 5 4 4 4 5 6 7 7 7 8 9 9 9 11 13 13
12 10 10 9 8 7 5 4 2 2 3 4 6 7 8 7 7 7 10 12 12 12 12 12 12 10 9 9 9 11 12 10 9 10 8 9 9 5 4 4 3 3 3 4 5 6 6 5 5 6 7 7 7 8 8 9 10 10 12 14 12 8
14 11 11 11 9 8 7 5 4 4 4 6 7 8 9 9 9 8 7 8 9 10 10 12 13 11 9 9 9 11 11 9 8 9 9 9 9 5 5 4 3 3 3 3 5 7 7 6 6 7 8 8 8 8 8 9 10 11 12 11 8 6
16 12 12 12 10 9 8 6 5 4 5 6 7 8 9 11 12 12 11 10 9 7 6 8 12 12 11 10 9 9 11 10 10 10 10 9 8 7 7 6 4 4 3 4 5 7 7 6 7 8 9 9 9 9 9 10 10 11 11 9 7 8
15 13 13 12 11 10 8 7 5 4 4 5 6 8 10 12 13 14 15 14 12 10 7 5 10 13 13 12 10 10 12 12 13 12 11 10 9 9 9 7 6 5 5 5 6 7 7 7 8 9 9 10 10 9 10 10 11 11 11 9 8 8
13 13 13 13 12 11 8 7 5 3 2 3 5 7 10 11 13 14 15 15 15 13 10 6 6 10 13 14 12 12 12 13 14 13 11 10 9 10 10 9 8 7 7 7 7 7 8 8 9 10 11 11 11 10 11 10 10 10 10 8 7 7
14 14 14 14 12 11 9 8 5 3 1 2 4 7 10 11 12 13 14 15 15 14 12 9 6 6 10 13 13 12 12 13 13 13 11 11 10 11 11 10 10 9 8 9 9 8 9 10 10 10 11 12 11 11 11 10 9 9 10 8 7 7
15 14 14 13 12 11 10 8 5 3 1 2 4 6 9 11 12 12 13 14 15 15 13 11 8 6 7 11 12 12 12 12 13 13 12 12 12 12 13 12 12 10 10 10 10 9 11 12 11 11 12 12 12 12 11 11 10 10 10 9 8 7
14 14 14 13 12 11 9 7 6 3 2 2 4 6 8 10 12 12 12 13 15 15 14 12 10 7 5 7 10 12 14 15 16 15 13 13 13 13 13 13 12 11 11 11 10 11 12 14 14 14 13 13 12 12 12 12 11 10 10 10 9 9
14 14 14 13 12 11 10 8 6 4 4 4 5 6 8 10 11 12 12 13 14 16 15 14 12 9 7 6 7 9 11 14 16 17 16 15 14 13 13 13 13 13 12 11 11 12 13 14 15 15 15 14 12 12 12 11 10 11 11 11 10 10
17 16 15 14 13 12 11 10 7 6 5 5 6 7 8 10 12 13 13 13 15 16 16 16 14 11 9 7 6 6 8 10 12 14 16 16 16 15 14 14 15 14 14 13 12 13 14 16 16 16 16 15 13 12 12 10 10 12 12 12 12 12
19 18 17 15 14 13 12 10 8 7 6 6 7 8 9 11 12 13 14 14 15 15 16 16 15 13 10 8 6 5 6 7 8 10 12 14 15 14 15 15 16 16 15 14 13 14 14 16 17 16 15 15 13 12 11 10 11 12 12 13 13 12
20 20 19 17 15 14 13 11 10 8 7 7 8 10 10 12 13 14 15 16 16 15 15 16 15 13 11 9 6 4 4 5 6 7 9 10 11 12 13 14 14 14 14 14 14 14 14 16 16 15 13 11 10 10 10 10 10 11 12 12 12 12
21 21 20 19 18 16 14 13 11 8 8 8 9 10 11 13 14 15 16 17 18 16 15 15 15 13 11 9 6 4 4 4 5 6 7 8 9 10 11 11 11 12 12 13 14 15 15 14 14 13 11 10 9 9 10 10 10 11 10 10 10 11
22 22 22 22 20 17 15 13 11 8 9 9 10 11 12 13 15 16 17 18 19 18 16 15 15 14 11 9 6 4 3 3 4 5 6 7 8 8 9 8 8 8 9 10 11 12 13 13 12 11 10 9 9 8 8 8 8 9 8 8 9 10
23 24 24 24 21 18 16 14 11 10 11 11 12 12 13 14 16 17 18 19 19 19 17 15 14 13 11 8 6 3 3 3 4 5 6 6 7 7 7 6 6 6 7 7 8 9 10 11 10 9 9 9 8 8 7 6 7 7 7 8 9 9
25 25 24 23 21 18 16 13 11 12 13 14 14 14 15 16 18 19 19 20 19 18 17 15 12 12 10 8 6 3 3 4 4 6 6 6 7 7 7 6 6 6 6 6 7 8 9 9 9 9 8 7 7 7 6 6 6 7 7 8 8 7
25 24 23 22 20 18 15 14 14 15 15 15 15 16 18 19 20 21 20 21 20 18 16 14 11 10 9 7 5 4 4 4 5 6 7 7 8 8 8 8 8 8 8 8 7 7 8 7 8 8 7 7 8 8 8 9 9 9 8 8 7 5
24 23 22 21 20 18 17 17 17 17 17 17 17 19 21 22 23 22 21 22 21 17 15 13 10 9 8 6 4 4 5 5 6 6 7 8 8 9 9 9 10 10 10 10 9 9 9 9 9 9 9 9 9 9 10 10 10 9 9 8 7 6
17 17 19 19 19 19 18 18 17 17 18 19 19 19 20 22 23 22 21 20 17 13 13 12 9 7 6 5 4 4 5 6 6 7 7 8 8 9 10 10 10 11 11 11 11 11 11 11 11 11 10 10 10 9 9 9 9 9 8 8 7 7
13 12 13 15 16 17 15 14 15 16 18 19 18 16 18 21 21 19 18 16 12 11 12 12 9 6 5 4 4 4 5 6 6 7 7 8 8 9 10 10 11 12 12 12 12 12 11 11 10 10 9 9 9 8 8 7 7 7 7 6 6 6
12 11 10 10 11 12 10 10 12 14 15 16 15 14 16 18 17 16 14 12 11 11 12 11 8 5 4 4 4 5 5 6 6 7 7 9 9 10 11 11 12 13 12 12 12 11 11 11 10 10 9 9 9 8 7 6 6 5 5 5 4 4
Wind_Direction
223 214 205 202 198 190 183 182 186 181 170 170 171 170 178 189 195 202 206 196 188 184 196 209 201 210 229 241 249 247 244 244 243 246 245 241 235 222 219 215 208 207 209 210 211 210 209 208 211 215 219 221 224 228 229 230 231 233 235 237 240 244
214 205 203 202 195 190 188 185 185 182 173 173 173 171 176 186 196 201 197 189 193 202 211 215 208 226 242 252 260 262 257 256 255 257 265 267 260 240 229 225 218 212 211 213 213 211 210 209 210 215 219 221 224 227 229 230 231 234 236 236 237 240
212 204 201 199 196 193 189 182 182 185 182 177 170 171 178 187 195 196 194 193 203 218 226 227 227 233 243 251 257 265 264 261 261 262 270 279 284 268 243 231 226 220 214 214 215 213 212 210 210 213 218 221 224 226 228 230 231 233 237 238 237 237
219 206 187 191 203 195 187 180 180 184 185 176 166 172 180 187 194 195 202 205 215 232 240 243 247 255 256 257 257 261 261 258 258 256 259 265 276 284 264 238 229 226 221 219 218 215 213 210 210 213 216 219 222 225 227 229 231 233 238 240 239 238
218 208 183 196 207 199 188 183 179 180 187 177 165 173 184 187 194 200 211 219 230 239 247 250 254 262 260 263 266 264 265 264 264 259 256 261 268 282 286 249 231 227 224 223 222 220 215 210 210 212 214 218 220 223 226 229 230 232 236 239 240 240
212 203 194 201 205 200 189 184 180 178 194 189 169 173 184 189 201 211 223 232 242 247 252 254 251 255 257 262 266 269 271 269 267 263 260 264 272 285 290 280 243 233 229 228 226 224 221 214 212 211 211 216 221 222 225 229 231 232 235 238 240 241
209 200 193 202 208 198 183 184 186 179 189 199 184 180 183 192 214 228 243 248 253 256 256 254 250 249 251 255 261 265 266 264 263 263 264 269 276 279 270 268 267 256 248 242 238 235 233 227 218 213 209 212 218 220 223 227 229 232 235 236 238 240
202 197 191 203 212 202 188 185 184 179 180 191 197 195 184 192 230 247 259 259 260 260 256 253 247 242 247 255 256 256 255 256 259 260 262 261 258 247 241 252 262 274 286 272 256 248 246 243 228 217 213 212 215 217 221 225 227 230 234 236 238 239
193 190 188 203 205 199 203 187 175 179 186 190 199 203 188 206 242 254 260 261 260 258 257 259 254 246 249 256 254 250 247 250 252 252 248 238 225 214 211 202 225 255 278 294 283 256 249 249 226 209 211 213 212 216 221 225 228 230 233 236 238 240
192 190 188 208 204 182 178 190 186 195 201 198 206 230 247 244 252 260 259 258 257 257 260 262 263 267 269 261 252 244 240 242 243 238 226 218 211 199 187 176 177 196 230 260 292 305 255 231 199 190 198 204 207 215 220 223 227 229 232 235 237 242
194 192 182 200 211 174 159 178 196 201 217 248 291 273 269 263 266 261 257 261 264 267 269 266 273 292 295 271 257 250 251 250 245 238 220 210 210 196 172 161 164 160 178 225 268 29 72 113 157 176 191 198 203 213 219 220 222 226 230 234 237 242
190 185 169 165 191 197 164 160 154 330 297 306 304 283 280 280 272 265 268 277 275 273 273 276 292 303 291 278 274 272 267 259 253 249 231 214 208 191 165 152 157 168 166 165 135 93 111 120 135 156 179 192 199 207 215 217 219 225 229 233 237 241
187 177 156 147 147 113 55 49 359 319 305 311 313 306 299 290 277 275 282 284 283 281 278 294 316 298 282 279 279 272 263 259 251 246 239 220 196 187 176 158 161 183 182 177 162 159 160 147 145 148 156 167 181 199 208 211 215 220 228 232 235 238
189 173 145 138 135 123 110 79 301 296 320 335 333 326 321 307 286 280 279 281 288 292 293 313 314 287 278 275 270 264 262 260 250 242 249 249 217 192 176 158 174 200 191 197 190 192 190 165 165 159 156 164 173 187 191 196 206 209 220 228 230 234
182 164 137 136 138 141 154 173 225 291 342 347 339 334 331 319 297 286 284 283 285 289 300 312 282 272 275 271 265 260 259 260 255 249 255 260 247 214 194 176 191 205 193 198 201 214 225 205 185 171 173 182 182 190 193 198 207 204 214 225 226 228
168 151 137 139 145 151 155 163 185 2 5 354 351 348 344 336 318 297 291 288 278 278 289 286 271 274 274 265 259 256 256 257 258 255 249 255 251 225 219 218 206 208 197 197 205 220 230 222 207 194 193 193 194 200 196 196 202 199 204 212 218 224
162 150 144 147 151 156 158 155 135 65 35 20 19 16 9 2 350 325 304 295 286 279 278 275 270 270 264 254 257 258 253 248 250 257 257 260 260 240 223 225 216 222 215 207 211 220 225 219 214 214 214 210 206 204 195 192 197 201 208 211 214 217
159 151 152 155 159 160 159 147 121 88 61 44 38 32 25 19 11 4 347 321 304 289 275 269 265 265 262 255 258 259 255 247 244 254 258 259 263 256 236 231 226 230 228 224 224 228 229 226 224 226 230 227 216 210 207 206 203 209 218 214 201 196
148 150 158 159 163 162 156 142 117 96 74 54 44 36 28 23 16 12 7 358 342 321 288 262 257 261 263 260 257 256 256 252 244 243 244 246 249 245 235 229 226 223 221 231 235 240 240 237 238 237 238 236 227 221 222 222 215 217 226 219 204 208
140 150 163 163 166 164 157 146 130 112 85 57 43 32 26 20 14 11 8 4 359 352 337 281 251 251 255 256 253 250 251 250 246 242 237 235 232 235 236 231 228 222 217 228 239 248 252 249 245 242 242 241 237 232 233 233 224 225 235 233 221 223
142 155 167 169 170 169 167 162 156 144 100 50 34 25 21 18 11 7 5 3 2 359 353 335 276 256 255 255 252 249 249 248 247 245 241 236 229 233 240 237 233 226 220 227 235 244 251 248 241 241 243 240 236 232 236 237 228 230 240 240 230 224
150 163 171 175 176 177 181 179 179 176 137 32 25 19 17 15 8 2 1 1 2 0 356 348 325 279 260 257 255 248 245 244 245 244 239 235 228 228 234 235 233 226 218 222 228 233 239 236 229 233 242 243 237 230 233 236 229 230 236 237 233 225
157 169 177 182 185 188 191 191 197 201 208 8 13 10 7 5 2 357 355 356 358 0 358 352 340 313 268 252 249 243 240 241 245 245 239 233 228 225 227 229 230 225 215 214 216 220 229 230 223 225 237 243 242 236 232 235 234 235 235 234 235 234
169 177 184 190 194 195 197 203 213 224 263 320 340 347 349 349 350 351 349 349 352 357 358 355 347 331 299 261 251 246 243 244 246 247 243 237 233 230 229 229 229 222 212 208 207 213 225 231 228 228 233 236 241 240 232 228 231 236 238 236 239 244
183 186 191 194 197 199 204 214 223 238 266 292 310 321 330 333 338 342 344 345 346 350 352 354 350 339 323 291 266 253 247 244 243 243 242 240 238 235 233 231 228 224 222 220 218 220 227 234 234 233 233 230 233 237 230 224 226 233 238 242 246 250
188 191 196 196 197 203 211 222 230 246 265 284 300 311 321 325 329 333 337 340 340 342 345 349 349 343 333 312 285 263 249 242 239 238 239 240 239 237 237 237 236 236 237 235 232 231 232 236 237 232 229 229 229 232 231 228 229 234 239 245 248 250
189 191 197 198 199 205 215 224 230 244 263 286 300 310 320 321 322 324 326 329 330 333 338 343 347 344 337 325 306 277 252 240 236 234 232 235 237 238 239 241 241 241 242 240 238 238 234 233 234 231 227 229 231 232 233 229 229 236 241 243 244 246
192 193 198 200 200 205 213 221 229 243 263 283 296 305 314 314 315 317 318 321 324 328 332 337 343 343 337 329 315 287 257 241 231 226 224 225 228 231 234 238 241 243 243 239 236 238 237 230 227 227 224 225 227 226 227 226 228 235 239 239 239 239
198 197 200 202 203 205 211 222 231 247 266 278 288 297 305 309 312 315 315 317 320 323 325 329 335 338 334 326 312 288 261 240 228 218 213 214 219 222 228 235 239 241 242 238 231 231 234 229 225 225 223 222 222 221 222 223 226 229 231 237 240 242
203 201 202 204 205 207 213 223 233 248 264 274 284 292 301 308 313 317 317 317 318 319 318 320 327 331 329 321 308 286 258 237 224 208 199 203 208 211 218 226 229 230 234 236 233 230 229 227 225 223 219 214 211 210 210 209 214 220 225 236 244 250
206 204 204 205 207 209 216 223 233 251 265 275 282 289 299 306 310 314 315 314 317 317 313 313 319 326 324 316 306 280 242 227 214 199 190 190 194 196 199 200 203 208 211 220 224 224 225 225 222 221 217 211 205 202 202 200 204 213 224 238 247 252
209 207 206 207 208 212 218 227 241 256 265 274 280 285 292 297 300 304 306 309 313 314 309 308 315 322 320 310 302 277 227 211 201 191 181 179 181 182 181 175 171 177 180 190 201 205 212 217 216 215 214 210 206 207 211 209 208 215 224 234 243 248
207 205 207 209 210 214 218 226 239 250 260 270 277 282 286 289 293 297 301 306 309 304 299 303 312 319 317 304 291 264 216 198 190 181 172 170 171 169 168 162 154 154 157 160 167 173 179 184 186 185 185 191 196 200 205 204 203 209 216 220 223 224
205 195 199 206 210 212 215 222 232 244 256 266 274 280 285 288 290 292 296 303 304 293 287 295 305 314 312 298 279 249 214 195 185 175 169 166 165 163 162 160 155 152 149 149 150 152 152 153 157 160 166 175 182 185 189 189 190 195 198 199 197 195
217 196 189 196 207 211 215 224 234 245 255 262 268 275 283 286 285 286 292 298 297 288 285 291 299 310 305 288 264 237 215 199 186 174 169 168 167 166 163 160 157 153 149 148 149 148 148 150 154 157 161 165 167 170 174 177 180 182 183 185 183 181
237 217 196 190 203 213 221 234 246 253 258 258 260 268 280 283 281 283 291 290 282 283 289 290 292 301 293 267 241 223 210 199 185 172 168 167 166 165 162 159 155 151 148 149 150 149 149 151 152 152 154 154 155 158 162 164 167 166 166 168 164 159
221 205 208 206 209 217 225 239 248 253 257 256 254 262 274 278 277 282 287 279 268 276 284 285 282 284 277 248 221 207 198 189 178 166 159 155 151 149 149 147 143 139 138 138 139 139 137 136 134 134 137 136 134 134 137 138 139 138 139 140 137 135